Cusco, Peru

9:27 PM PET on December 04, 2016 (GMT -0500)
Alejandro Velazco Astete

Weather History for SPZO - October, 2012

Change the Weather History Date:

Thursday, October 4, 2012

  Actual Average Record
Temperature  
Mean Temperature 60 °F -  
Max Temperature 73 °F 68 °F 75 °F (1997)
Min Temperature 46 °F 42 °F 37 °F (1996)
Degree Days  
Heating Degree Days 6    
Growing Degree Days 10 (Base 50)    
Moisture  
Dew Point 37 °F    
Average Humidity 44    
Maximum Humidity 76    
Minimum Humidity 13    
Precipitation  
Precipitation 0.00 in - - ()
Sea Level Pressure  
Sea Level Pressure 30.41 in    
Wind  
Wind Speed 4 mph ()    
Max Wind Speed 15 mph    
Max Gust Speed -    
Visibility 6.2 miles    
Events      
Averages and records for this station are not official NWS values.
T = Trace of Precipitation, MM = Missing Value Source: Averaged Metar Reports

Daily Weather History Graph

Daily Weather History Graph

Search for Another Location

Airport or City:

Trip Planner

Search our weather history database for the weather conditions in past years. The results will help you decide how hot, cold, wet, or windy it might be!

Date:

Astronomy

Oct. 04, 2012 Rise Set
Actual Time 5:28 AM PET 5:44 PM PET
Civil Twilight 5:07 AM PET 6:05 PM PET
Nautical Twilight 4:42 AM PET 6:30 PM PET
Astronomical Twilight 4:17 AM PET 6:55 PM PET
Moon 9:34 PM PET (10/4) 8:27 AM PET (10/4)
Length of Visible Light 12h 58m
Length of Day
12h 15m
Waning Gibbous, 82% of the Moon is Illuminated
Oct 4
Waning Gibbous
Oct 8
Last Quarter
Oct 15
New
Oct 21
First Quarter
Oct 29
Full

Hourly Weather History & Observations

Time (PET) Temp. Dew Point Humidity Pressure Visibility Wind Dir Wind Speed Gust Speed Precip Events Conditions
12:00 AM 50.0 °F 41.0 °F 71% 30.48 in 6.2 mi Calm Calm - N/A   Clear
1:00 AM 49 °F 39 °F 60%  in 6 mi Calm Calm - -   Partly Cloudy
1:00 AM 48.2 °F 39.2 °F 71% 30.48 in 6.2 mi Calm Calm - N/A   Clear
2:00 AM 48.2 °F 41.0 °F 76% 30.48 in 6.2 mi Calm Calm - N/A   Scattered Clouds
3:00 AM 48.2 °F 39.2 °F 71% 30.48 in 6.2 mi Calm Calm - N/A   Scattered Clouds
4:00 AM 50.0 °F 41.0 °F 71% 30.48 in 6.2 mi Calm Calm - N/A   Scattered Clouds
5:00 AM 50.0 °F 41.0 °F 71% 30.48 in 6.2 mi ESE 3.5 mph - N/A   Scattered Clouds
5:30 AM 50.0 °F 41.0 °F 71% 30.48 in 6.2 mi East 3.5 mph - N/A   Mostly Cloudy
6:00 AM 50.0 °F 41.0 °F 71% 30.51 in 6.2 mi East 3.5 mph - N/A   Scattered Clouds
6:30 AM 50.0 °F 41.0 °F 71% 30.51 in 6.2 mi East 3.5 mph - N/A   Scattered Clouds
7:00 AM 52 °F 42 °F 58%  in 6 mi ESE 3.5 mph - -   Partly Cloudy
7:00 AM 51.8 °F 41.0 °F 67% 30.51 in 6.2 mi ESE 3.5 mph - N/A   Scattered Clouds
7:30 AM 57.2 °F 41.0 °F 55% 30.51 in 6.2 mi Variable 2.3 mph - N/A   Scattered Clouds
8:00 AM 57.2 °F 41.0 °F 55% 30.51 in 6.2 mi Variable 3.5 mph - N/A   Scattered Clouds
8:30 AM 60.8 °F 41.0 °F 48% 30.51 in 6.2 mi Variable 4.6 mph - N/A   Scattered Clouds
9:00 AM 60.8 °F 39.2 °F 45% 30.51 in 6.2 mi Variable 3.5 mph - N/A   Scattered Clouds
9:30 AM 62.6 °F 33.8 °F 34% 30.48 in 6.2 mi NNW 9.2 mph - N/A   Scattered Clouds
10:00 AM 62 °F 34 °F 23%  in 6 mi 3.5 mph - -   Partly Cloudy
10:00 AM 62.6 °F 33.8 °F 34% 30.48 in 6.2 mi Variable 3.5 mph - N/A   Scattered Clouds
10:30 AM 64.4 °F 33.8 °F 32% 30.45 in 6.2 mi Variable 4.6 mph - N/A   Scattered Clouds
11:00 AM 66.2 °F 33.8 °F 30% 30.45 in 6.2 mi NW 9.2 mph - N/A   Scattered Clouds
11:30 AM 68.0 °F 32.0 °F 26% 30.42 in 6.2 mi NNW 8.1 mph - N/A   Scattered Clouds
12:00 PM 68.0 °F 30.2 °F 24% 30.39 in 6.2 mi Variable 4.6 mph - N/A   Scattered Clouds
12:30 PM 71.6 °F 33.8 °F 25% 30.39 in 6.2 mi NNE 6.9 mph - N/A   Scattered Clouds
1:00 PM 70 °F 32 °F 14%  in 6 mi NE 6.9 mph - -   Partly Cloudy
1:00 PM 69.8 °F 32.0 °F 25% 30.36 in 6.2 mi NE 6.9 mph - N/A   Scattered Clouds
1:30 PM 71.6 °F 32.0 °F 23% 30.33 in 6.2 mi West 9.2 mph - N/A   Scattered Clouds
2:00 PM 69.8 °F 32.0 °F 25% 30.33 in 6.2 mi West 12.7 mph - N/A   Scattered Clouds
2:30 PM 71.6 °F 32.0 °F 23% 30.30 in 6.2 mi West 12.7 mph - N/A   Mostly Cloudy
3:00 PM 71.6 °F 32.0 °F 23% 30.30 in 6.2 mi WNW 15.0 mph - N/A   Scattered Clouds
3:30 PM 71.6 °F 30.2 °F 22% 30.27 in 6.2 mi WNW 12.7 mph - N/A   Scattered Clouds
4:00 PM 70 °F 30 °F 13%  in 6 mi West 10.4 mph - -   Partly Cloudy
4:00 PM 69.8 °F 30.2 °F 23% 30.27 in 6.2 mi West 10.4 mph - N/A   Scattered Clouds
4:30 PM 71.6 °F 30.2 °F 22% 30.27 in 6.2 mi West 13.8 mph - N/A   Scattered Clouds
5:00 PM 69.8 °F 28.4 °F 21% 30.27 in 6.2 mi WNW 13.8 mph - N/A   Scattered Clouds
5:30 PM 66.2 °F 37.4 °F 35% 30.30 in 6.2 mi Variable 3.5 mph - N/A   Partly Cloudy
6:00 PM 64.4 °F 39.2 °F 40% 30.30 in 6.2 mi Variable 2.3 mph - N/A   Partly Cloudy
7:00 PM 60 °F 40 °F 35%  in 6 mi NE 5.8 mph - -   Partly Cloudy
7:00 PM 60.8 °F 39.2 °F 45% 30.33 in 6.2 mi NE 5.8 mph - N/A   Clear
8:00 PM 57.2 °F 41.0 °F 55% 30.36 in 6.2 mi East 4.6 mph - N/A   Clear
9:00 PM 55.4 °F 42.8 °F 63% 30.39 in 6.2 mi ESE 8.1 mph - N/A   Clear
10:00 PM 51.8 °F 41.0 °F 67% 30.42 in 6.2 mi West 4.6 mph - N/A   Partly Cloudy
11:00 PM 53.6 °F 41.0 °F 62% 30.42 in 6.2 mi Variable 1.2 mph - N/A   Scattered Clouds